Tracking 23762 objects as of 20-Oct-2021
HD Live streaming from Space Station
objects crossing your sky now

FREGAT R/B

Track FREGAT R/B now!


NORAD ID: 28133
Int'l Code: 2003-059B
Perigee: 4,290.7 km
Apogee: 35,925.3 km
Inclination: 22.4 °
Period: 714.7 minutes
Semi major axis: 26478 km
RCS: 9.0569 m2 (large)
Launch date: December 27, 2003
Source: Commonwealth of Independent States (former USSR) (CIS)
Launch site: TYURATAM MISSILE AND SPACE COMPLEX (TTMTR)

Note: This is a ROCKET BODY
aabbcc
Your satellite tracking list
Your tracking list is empty




NASA's NSSDC Master Catalog

Two Line Element Set (TLE):
1 28133U 03059B   21292.70848601 -.00000098  00000-0  00000+0 0  9991
2 28133  22.4459 156.2522 5973541 284.7082  19.3111  2.01488644131113
Source of the keplerian elements: AFSPC